Weather History for KARM - March, 2014

Change the Weather History Date:

Monday, March 31, 2014

  Actual Average (KPSX) Record (KPSX)
Temperature  
Mean Temperature 66 °F -  
Max Temperature 77 °F 74 °F 87 °F (2004)
Min Temperature 54 °F 54 °F 32 °F (1987)
Growing Degree Days 16 (Base 50)    
Moisture  
Dew Point 59 °F    
Average Humidity 80    
Maximum Humidity 98    
Minimum Humidity 55    
Precipitation  
Precipitation 0.00 in - - ()
Sea Level Pressure  
Sea Level Pressure 30.00 in    
Wind  
Wind Speed 9 mph (SE)    
Max Wind Speed 23 mph    
Max Gust Speed 28 mph    
Visibility 9 miles    
Events      
Averages and records for this station are not official NWS values.
T = Trace of Precipitation, MM = Missing Value Source: NWS Daily Summary

Daily Weather History Graph

Daily Weather History Graph

Search for Another Location

Airport or City:

Trip Planner

Search our weather history database for the weather conditions in past years. The results will help you decide how hot, cold, wet, or windy it might be!

Date:

Astronomy

Mar. 31, 2014 Rise Set
Actual Time 7:15 AM CDT 7:42 PM CDT
Civil Twilight 6:51 AM CDT 8:06 PM CDT
Nautical Twilight 6:23 AM CDT 8:34 PM CDT
Astronomical Twilight 5:55 AM CDT 9:02 PM CDT
Moon 7:44 AM CDT (3/31) 8:55 PM CDT (3/31)
Length of Visible Light 13h 14m
Length of Day
12h 27m
New Moon, 1% of the Moon is Illuminated
Mar 31
New Moon
Apr 7
First Quarter
Apr 15
Full
Apr 22
Last Quarter
Apr 29
New

Hourly Weather History & Observations

Time (CDT) Temp. Dew Point Humidity Pressure Visibility Wind Dir Wind Speed Gust Speed Precip Events Conditions
12:15 AM 55.0 °F 51.8 °F 89% 30.08 in 10.0 mi ESE 5.8 mph - N/A   Clear
12:35 AM 54.9 °F 52.0 °F 90% 30.08 in 10.0 mi ESE 4.6 mph - N/A   Clear
12:55 AM 54.5 °F 52.0 °F 91% 30.07 in 10.0 mi ESE 5.8 mph - N/A   Clear
1:15 AM 54.9 °F 52.5 °F 92% 30.08 in 10.0 mi SE 4.6 mph - N/A   Clear
1:35 AM 54.9 °F 52.7 °F 92% 30.07 in 10.0 mi ESE 4.6 mph - N/A   Clear
1:55 AM 55.4 °F 53.2 °F 92% 30.06 in 10.0 mi ESE 5.8 mph - N/A   Clear
2:15 AM 55.4 °F 53.2 °F 92% 30.05 in 10.0 mi ESE 5.8 mph - N/A   Clear
2:35 AM 54.9 °F 53.1 °F 94% 30.04 in 10.0 mi ESE 5.8 mph - N/A   Clear
2:55 AM 54.9 °F 53.2 °F 94% 30.03 in 10.0 mi ESE 5.8 mph - N/A   Clear
3:15 AM 54.9 °F 53.6 °F 96% 30.02 in 10.0 mi ESE 5.8 mph - N/A   Clear
3:35 AM 55.0 °F 53.8 °F 96% 30.02 in 10.0 mi SE 4.6 mph - N/A   Clear
3:55 AM 54.7 °F 53.6 °F 96% 30.02 in 10.0 mi SE 3.5 mph - N/A   Clear
4:15 AM 54.7 °F 53.6 °F 96% 30.02 in 10.0 mi Calm Calm - N/A   Clear
4:35 AM 54.3 °F 53.4 °F 97% 30.01 in 5.0 mi Calm Calm - N/A   Clear
4:55 AM 54.1 °F 53.2 °F 97% 30.01 in 5.0 mi SE 3.5 mph - N/A   Scattered Clouds
5:15 AM 54.1 °F 53.6 °F 98% 29.99 in 7.0 mi ESE 6.9 mph - N/A   Scattered Clouds
5:35 AM 55.4 °F 54.5 °F 97% 29.99 in 7.0 mi ESE 5.8 mph - N/A   Mostly Cloudy
5:55 AM 55.4 °F 54.5 °F 97% 29.98 in 7.0 mi ESE 5.8 mph - N/A   Scattered Clouds
6:15 AM 55.6 °F 54.9 °F 97% 29.98 in 7.0 mi ESE 4.6 mph - N/A   Scattered Clouds
6:35 AM 55.0 °F 54.5 °F 98% 29.99 in 7.0 mi ESE 4.6 mph - N/A   Scattered Clouds
6:55 AM 55.6 °F 54.9 °F 97% 29.99 in 7.0 mi ESE 4.6 mph - N/A   Scattered Clouds
7:15 AM 56.3 °F 55.6 °F 97% 29.99 in 5.0 mi ESE 4.6 mph - N/A   Mostly Cloudy
7:35 AM 56.8 °F 56.3 °F 98% 30.00 in 5.0 mi ESE 4.6 mph - N/A   Mostly Cloudy
7:55 AM 57.9 °F 57.2 °F 97% 30.00 in 7.0 mi ESE 5.8 mph - N/A   Overcast
8:15 AM 59.2 °F 58.5 °F 97% 30.01 in 7.0 mi ESE 4.6 mph - N/A   Mostly Cloudy
8:35 AM 60.6 °F 59.7 °F 97% 30.01 in 7.0 mi ESE 5.8 mph - N/A   Mostly Cloudy
8:55 AM 63.1 °F 61.3 °F 94% 30.01 in 10.0 mi SE 6.9 mph - N/A   Scattered Clouds
9:15 AM 65.5 °F 61.5 °F 87% 30.01 in 10.0 mi SSE 12.7 mph - N/A   Scattered Clouds
9:35 AM 67.3 °F 61.9 °F 83% 30.01 in 10.0 mi SE 13.8 mph 17.3 mph N/A   Clear
9:55 AM 68.4 °F 61.7 °F 79% 30.01 in 10.0 mi SSE 13.8 mph - N/A   Scattered Clouds
10:10 AM 70.0 °F 62.1 °F 76% 30.02 in 10.0 mi SSE 16.1 mph - N/A   Mostly Cloudy
10:35 AM 71.1 °F 61.3 °F 71% 30.02 in 10.0 mi SSE 17.3 mph 24.2 mph N/A   Mostly Cloudy
10:55 AM 72.5 °F 61.0 °F 67% 30.02 in 10.0 mi SSE 16.1 mph 23.0 mph N/A   Mostly Cloudy
11:15 AM 72.5 °F 60.4 °F 66% 30.02 in 10.0 mi South 18.4 mph 25.3 mph N/A   Mostly Cloudy
11:35 AM 73.0 °F 60.4 °F 65% 30.02 in 10.0 mi South 19.6 mph - N/A   Mostly Cloudy
11:55 AM 74.3 °F 60.3 °F 61% 30.02 in 10.0 mi South 19.6 mph 25.3 mph N/A   Scattered Clouds
12:15 PM 75.4 °F 60.8 °F 60% 30.01 in 10.0 mi SSE 23.0 mph - N/A   Scattered Clouds
12:35 PM 75.0 °F 60.6 °F 61% 30.01 in 10.0 mi SSE 20.7 mph 26.5 mph N/A   Scattered Clouds
12:55 PM 75.6 °F 60.8 °F 60% 30.01 in 10.0 mi SSE 18.4 mph 26.5 mph N/A   Scattered Clouds
1:15 PM 75.7 °F 60.8 °F 60% 30.01 in 10.0 mi SSE 19.6 mph 27.6 mph N/A   Scattered Clouds
1:35 PM 75.0 °F 60.6 °F 61% 30.00 in 10.0 mi SSE 18.4 mph 26.5 mph N/A   Mostly Cloudy
1:55 PM 75.2 °F 60.6 °F 60% 29.99 in 10.0 mi SSE 18.4 mph 23.0 mph N/A   Mostly Cloudy
2:15 PM 77.0 °F 60.6 °F 57% 29.98 in 10.0 mi South 18.4 mph 26.5 mph N/A   Scattered Clouds
2:35 PM 76.8 °F 60.4 °F 57% 29.97 in 10.0 mi SSE 18.4 mph 24.2 mph N/A   Clear
2:55 PM 76.6 °F 60.1 °F 56% 29.97 in 10.0 mi South 17.3 mph 23.0 mph N/A   Scattered Clouds
3:15 PM 77.4 °F 60.4 °F 56% 29.96 in 10.0 mi South 16.1 mph 21.9 mph N/A   Scattered Clouds
3:35 PM 76.1 °F 60.8 °F 59% 29.96 in 10.0 mi SSE 17.3 mph 21.9 mph N/A   Scattered Clouds
3:55 PM 76.8 °F 60.6 °F 57% 29.96 in 10.0 mi SSE 18.4 mph 26.5 mph N/A   Scattered Clouds
4:15 PM 77.2 °F 60.1 °F 55% 29.96 in 10.0 mi SSE 18.4 mph - N/A   Scattered Clouds
4:35 PM 77.2 °F 60.8 °F 57% 29.95 in 10.0 mi South 18.4 mph 21.9 mph N/A   Scattered Clouds
4:55 PM 77.0 °F 61.3 °F 58% 29.95 in 10.0 mi SSE 17.3 mph - N/A   Scattered Clouds
5:15 PM 76.1 °F 61.3 °F 60% 29.94 in 10.0 mi SSE 17.3 mph 23.0 mph N/A   Mostly Cloudy
5:35 PM 75.9 °F 61.7 °F 61% 29.94 in 10.0 mi SSE 15.0 mph 19.6 mph N/A   Mostly Cloudy
5:55 PM 75.6 °F 61.7 °F 62% 29.94 in 10.0 mi South 16.1 mph 20.7 mph N/A   Scattered Clouds
6:15 PM 74.3 °F 61.7 °F 65% 29.94 in 10.0 mi SSE 15.0 mph - N/A   Scattered Clouds
6:35 PM 73.8 °F 62.1 °F 67% 29.94 in 10.0 mi South 12.7 mph - N/A   Scattered Clouds
6:55 PM 72.7 °F 62.6 °F 71% 29.94 in 10.0 mi SE 13.8 mph 19.6 mph N/A   Mostly Cloudy
7:15 PM 71.2 °F 62.6 °F 74% 29.95 in 10.0 mi SSE 11.5 mph - N/A   Scattered Clouds
7:35 PM 70.2 °F 62.8 °F 77% 29.95 in 10.0 mi SE 9.2 mph - N/A   Scattered Clouds
7:55 PM 69.3 °F 63.0 °F 80% 29.96 in 10.0 mi SE 9.2 mph - N/A   Mostly Cloudy
8:15 PM 68.2 °F 63.0 °F 83% 29.96 in 10.0 mi SE 9.2 mph - N/A   Scattered Clouds
8:35 PM 68.0 °F 63.1 °F 84% 29.96 in 10.0 mi SE 10.4 mph - N/A   Clear
8:55 PM 67.6 °F 63.5 °F 87% 29.97 in 10.0 mi SE 6.9 mph - N/A   Clear
9:15 PM 67.5 °F 63.5 °F 87% 29.97 in 10.0 mi SE 10.4 mph - N/A   Clear
9:35 PM 67.3 °F 63.5 °F 88% 29.96 in 10.0 mi SE 11.5 mph - N/A   Clear
9:55 PM 67.1 °F 63.9 °F 89% 29.97 in 10.0 mi SE 12.7 mph - N/A   Clear
10:15 PM 66.7 °F 64.0 °F 91% 29.98 in 10.0 mi SE 10.4 mph - N/A   Clear
10:35 PM 66.6 °F 64.4 °F 93% 29.98 in 10.0 mi SE 9.2 mph - N/A   Scattered Clouds
10:55 PM 66.4 °F 64.4 °F 93% 29.99 in 10.0 mi SE 6.9 mph - N/A   Scattered Clouds
11:15 PM 66.6 °F 64.6 °F 93% 29.99 in 7.0 mi SE 6.9 mph - N/A   Mostly Cloudy
11:35 PM 67.1 °F 64.9 °F 93% 30.00 in 10.0 mi SE 6.9 mph - N/A   Overcast
11:55 PM 67.3 °F 64.9 °F 92% 29.99 in 10.0 mi SE 8.1 mph - N/A   Overcast